Weather History for Houghton, MI

Change the Weather History Date:

Tuesday, September 10, 2013

  Actual Average Record
Temperature  
Mean Temperature 66 °F -  
Max Temperature 70 °F 64 °F 87 °F (1952)
Min Temperature 63 °F 49 °F 32 °F (2006)
Cooling Degree Days 2    
Growing Degree Days 16 (Base 50)    
Moisture  
Dew Point 64 °F    
Average Humidity 94    
Maximum Humidity 100    
Minimum Humidity 75    
Precipitation  
Precipitation 0.02 in - - ()
Sea Level Pressure  
Sea Level Pressure 29.76 in    
Wind  
Wind Speed 6 mph (West)    
Max Wind Speed 20 mph    
Max Gust Speed 26 mph    
Visibility 4 miles    
Events Fog , Rain    
Averages and records for this station are not official NWS values.
T = Trace of Precipitation, MM = Missing Value Source: NWS Daily Summary

Daily Weather History Graph

Daily Weather History Graph

Search for Another Location

Airport:

Trip Planner

Search our weather history database for the weather conditions in past years. The results will help you decide how hot, cold, wet, or windy it might be!

Date:

Astronomy

Sep. 10, 2013 Rise Set
Actual Time 7:25 AM EDT 8:15 PM EDT
Civil Twilight 6:54 AM EDT 8:46 PM EDT
Nautical Twilight 6:17 AM EDT 9:23 PM EDT
Astronomical Twilight 5:38 AM EDT 10:01 PM EDT
Moon 1:14 PM EDT (9/10) 10:54 PM EDT (9/10)
Length of Visible Light 13h 52m
Length of Day
12h 50m
Waxing Crescent, 28% of the Moon is Illuminated
Sep 10
Waxing Crescent
Sep 12
First Quarter
Sep 19
Full
Sep 26
Last Quarter
Oct 4
New

Hourly Weather History & Observations

Time (EDT) Temp. Dew Point Humidity Pressure Visibility Wind Dir Wind Speed Gust Speed Precip Events Conditions
12:41 AM 64.4 °F 64.4 °F 100% 29.70 in 0.5 mi East 4.6 mph - N/A Fog Fog
12:53 AM 64.9 °F 64.0 °F 97% 29.70 in 1.2 mi East 3.5 mph - N/A   Overcast
1:14 AM 64.4 °F 64.4 °F 100% 29.69 in 1.8 mi East 4.6 mph - N/A   Overcast
1:22 AM 64.4 °F 64.4 °F 100% 29.70 in 2.0 mi SE 3.5 mph - N/A   Overcast
1:28 AM 64.4 °F 64.4 °F 100% 29.70 in 1.8 mi ESE 4.6 mph - N/A   Overcast
1:35 AM 64.4 °F 64.4 °F 100% 29.69 in 1.5 mi East 3.5 mph - N/A   Overcast
1:40 AM 64.4 °F 62.6 °F 94% 29.69 in 2.0 mi East 4.6 mph - N/A   Overcast
1:50 AM 64.4 °F 64.4 °F 100% 29.70 in 1.5 mi East 3.5 mph - N/A   Overcast
1:53 AM 64.9 °F 64.0 °F 97% 29.70 in 1.8 mi Calm Calm - N/A   Overcast
2:01 AM 64.4 °F 64.4 °F 100% 29.69 in 2.0 mi Calm Calm - N/A   Overcast
2:04 AM 64.4 °F 64.4 °F 100% 29.69 in 1.8 mi Calm Calm - N/A   Overcast
2:13 AM 64.4 °F 64.4 °F 100% 29.69 in 2.0 mi Calm Calm - N/A   Overcast
2:27 AM 64.4 °F 62.6 °F 94% 29.69 in 1.5 mi Calm Calm - N/A   Overcast
2:37 AM 64.4 °F 62.6 °F 94% 29.68 in 0.8 mi Calm Calm - N/A   Overcast
2:53 AM 63.0 °F 63.0 °F 100% 29.69 in 0.2 mi Calm Calm - N/A Fog Fog
3:05 AM 64.4 °F 62.6 °F 94% 29.70 in 0.2 mi Calm Calm - N/A Fog Fog
3:14 AM 64.4 °F 64.4 °F 100% 29.70 in 0.5 mi Calm Calm - N/A Fog Fog
3:20 AM 64.4 °F 64.4 °F 100% 29.70 in 1.0 mi Calm Calm - N/A   Overcast
3:31 AM 64.4 °F 62.6 °F 94% 29.71 in 2.5 mi Calm Calm - N/A   Overcast
3:45 AM 64.4 °F 64.4 °F 100% 29.71 in 2.5 mi Calm Calm - N/A   Overcast
3:53 AM 64.9 °F 64.0 °F 97% 29.71 in 2.0 mi Calm Calm - N/A   Overcast
4:07 AM 66.2 °F 64.4 °F 94% 29.71 in 3.0 mi West 8.1 mph - N/A   Overcast
4:53 AM 66.0 °F 64.9 °F 96% 29.71 in 4.0 mi West 11.5 mph - N/A   Overcast
5:53 AM 66.0 °F 64.9 °F 96% 29.71 in 2.5 mi West 10.4 mph - N/A   Overcast
6:31 AM 64.4 °F 64.4 °F 100% 29.72 in 1.2 mi West 12.7 mph - N/A   Overcast
6:42 AM 64.4 °F 64.4 °F 100% 29.73 in 0.8 mi West 12.7 mph - N/A   Mist
6:53 AM 64.9 °F 64.0 °F 97% 29.72 in 0.5 mi West 11.5 mph - N/A Fog Fog
7:33 AM 64.4 °F 62.6 °F 94% 29.73 in 0.2 mi West 9.2 mph - N/A Fog Fog
7:53 AM 64.9 °F 63.0 °F 93% 29.73 in 0.2 mi West 13.8 mph - N/A Fog Fog
8:53 AM 64.9 °F 63.0 °F 93% 29.75 in 0.2 mi West 13.8 mph - N/A Fog Fog
9:21 AM 64.4 °F 64.4 °F 100% 29.76 in 0.8 mi West 10.4 mph - N/A   Overcast
9:50 AM 64.4 °F 64.4 °F 100% 29.79 in 1.2 mi West 8.1 mph - 0.01 in Rain Light Rain
9:53 AM 64.9 °F 64.0 °F 97% 29.78 in 1.5 mi West 10.4 mph - 0.01 in Rain Light Rain
10:01 AM 64.4 °F 64.4 °F 100% 29.78 in 3.0 mi West 8.1 mph - 0.00 in   Overcast
10:09 AM 64.4 °F 64.4 °F 100% 29.78 in 1.8 mi WSW 9.2 mph - 0.00 in   Overcast
10:30 AM 66.2 °F 64.4 °F 94% 29.78 in - West 9.2 mph - 0.00 in   Overcast
10:53 AM 64.9 °F 64.0 °F 97% 29.78 in - WNW 15.0 mph - 0.00 in   Overcast
11:06 AM 64.4 °F 62.6 °F 94% 29.79 in 0.2 mi Calm Calm - N/A Fog Fog
11:53 AM 64.9 °F 64.0 °F 97% 29.78 in 0.2 mi West 16.1 mph - N/A Fog Fog
12:00 PM 64.4 °F 64.4 °F 100% 29.79 in 0.2 mi West 18.4 mph - N/A Fog Fog
12:30 PM 64.4 °F 64.4 °F 100% 29.80 in 1.0 mi West 13.8 mph - N/A   Mist
12:44 PM 66.2 °F 64.4 °F 94% 29.80 in 2.0 mi West 15.0 mph - N/A   Overcast
12:53 PM 66.0 °F 64.0 °F 93% 29.80 in 3.0 mi West 16.1 mph 26.5 mph N/A   Overcast
1:53 PM 66.0 °F 64.9 °F 96% 29.82 in 9.0 mi West 15.0 mph 23.0 mph N/A   Overcast
2:08 PM 66.2 °F 64.4 °F 94% 29.82 in 10.0 mi West 16.1 mph - N/A   Overcast
2:53 PM 66.9 °F 63.0 °F 87% 29.83 in 10.0 mi West 15.0 mph 24.2 mph 0.01 in   Overcast
3:14 PM 66.2 °F 62.6 °F 88% 29.84 in 10.0 mi West 17.3 mph - N/A   Overcast
3:53 PM 68.0 °F 63.0 °F 84% 29.83 in 10.0 mi West 17.3 mph - N/A   Overcast
4:08 PM 68.0 °F 62.6 °F 83% 29.84 in 10.0 mi West 17.3 mph 23.0 mph N/A   Overcast
4:27 PM 69.8 °F 62.6 °F 78% 29.84 in 10.0 mi West 17.3 mph 25.3 mph N/A   Mostly Cloudy
4:53 PM 70.0 °F 62.1 °F 76% 29.84 in 10.0 mi West 17.3 mph 25.3 mph N/A   Mostly Cloudy
5:53 PM 70.0 °F 62.1 °F 76% 29.84 in 10.0 mi West 19.6 mph - N/A   Partly Cloudy
6:53 PM 69.1 °F 61.0 °F 75% 29.85 in 10.0 mi West 11.5 mph - N/A   Clear
7:53 PM 66.9 °F 61.0 °F 81% 29.85 in 10.0 mi West 8.1 mph - N/A   Clear
8:53 PM 64.9 °F 61.0 °F 87% 29.86 in 10.0 mi West 5.8 mph - N/A   Clear
9:53 PM 64.9 °F 62.1 °F 90% 29.88 in 10.0 mi West 6.9 mph - N/A   Mostly Cloudy
10:53 PM 64.9 °F 62.1 °F 90% 29.88 in 10.0 mi NW 5.8 mph - N/A   Partly Cloudy
11:53 PM 63.0 °F 61.0 °F 93% 29.88 in 10.0 mi NNW 6.9 mph - N/A   Mostly Cloudy